TimeGMT,TemperatureF,Dew PointF,Humidity,Sea Level PressureIn,VisibilityMPH,Wind Direction,Wind SpeedMPH,Gust SpeedMPH,PrecipitationIn,Events,Conditions,WindDirDegrees,DateUTC
12:20 AM,28.4,26.6,93,30.24,5.0,Calm,Calm,-,N/A,,Mostly Cloudy,0,2012-12-12 00:20:00
12:50 AM,28.4,28.4,100,30.24,4.3,Variable,2.3,-,N/A,,Mostly Cloudy,0,2012-12-12 00:50:00
1:20 AM,28.4,26.6,93,30.24,4.3,Calm,Calm,-,N/A,,Mostly Cloudy,0,2012-12-12 01:20:00
1:50 AM,28.4,28.4,100,30.21,3.1,NNE,3.5,-,N/A,Rain,Freezing Rain,20,2012-12-12 01:50:00
2:20 AM,28.4,26.6,93,30.21,3.1,ENE,3.5,-,N/A,,Haze,60,2012-12-12 02:20:00
2:50 AM,28.4,28.4,100,30.21,-9999.0,Calm,Calm,-,N/A,,Haze,0,2012-12-12 02:50:00
3:20 AM,30.2,28.4,93,30.18,3.1,Calm,Calm,-,N/A,,Haze,0,2012-12-12 03:20:00
3:50 AM,28.4,28.4,100,30.18,3.1,WSW,2.3,-,N/A,,Haze,240,2012-12-12 03:50:00
4:20 AM,28.4,28.4,100,30.15,3.1,Variable,2.3,-,N/A,,Haze,0,2012-12-12 04:20:00
4:50 AM,30.2,28.4,93,30.15,3.1,Calm,Calm,-,N/A,,Haze,0,2012-12-12 04:50:00
5:20 AM,28.4,28.4,100,30.15,3.1,Calm,Calm,-,N/A,,Haze,0,2012-12-12 05:20:00
5:50 AM,28.4,26.6,93,30.12,3.1,West,2.3,-,N/A,,Haze,270,2012-12-12 05:50:00
6:20 AM,26.6,24.8,93,30.12,-9999.0,WSW,2.3,-,N/A,,Haze,250,2012-12-12 06:20:00
6:50 AM,24.8,24.8,100,30.12,1.9,North,3.5,-,N/A,Fog,Fog,350,2012-12-12 06:50:00
7:20 AM,23.0,21.2,93,30.09,1.9,Variable,2.3,-,N/A,Fog,Shallow Fog,0,2012-12-12 07:20:00
7:50 AM,21.2,19.4,93,30.09,-9999.0,SW,4.6,-,N/A,Fog,Fog,220,2012-12-12 07:50:00
8:20 AM,23.0,23.0,100,30.09,-9999.0,Variable,3.5,-,N/A,Fog,Fog,0,2012-12-12 08:20:00
8:50 AM,23.0,23.0,100,30.09,2.5,Variable,2.3,-,N/A,Fog,Patches of Fog,0,2012-12-12 08:50:00
9:20 AM,23.0,21.2,93,30.06,-9999.0,Variable,2.3,-,N/A,Fog,Patches of Fog,0,2012-12-12 09:20:00
9:50 AM,23.0,21.2,93,30.06,3.1,SW,3.5,-,N/A,,Mist,230,2012-12-12 09:50:00
10:20 AM,24.8,24.8,100,30.06,3.1,Variable,2.3,-,N/A,,Partly Cloudy,0,2012-12-12 10:20:00
10:50 AM,26.6,26.6,100,30.06,3.1,Calm,Calm,-,N/A,,Mostly Cloudy,0,2012-12-12 10:50:00
11:20 AM,28.4,28.4,100,30.06,-9999.0,WSW,2.3,-,N/A,,Mostly Cloudy,250,2012-12-12 11:20:00
11:50 AM,30.2,28.4,93,30.04,3.1,Calm,Calm,-,N/A,,Mostly Cloudy,0,2012-12-12 11:50:00
12:20 PM,30.2,28.4,93,30.04,3.1,Calm,Calm,-,N/A,,Mostly Cloudy,0,2012-12-12 12:20:00
12:50 PM,30.2,30.2,100,30.01,3.1,NNE,2.3,-,N/A,,Mostly Cloudy,30,2012-12-12 12:50:00
1:20 PM,32.0,30.2,93,30.01,-9999.0,ENE,2.3,-,N/A,,Mostly Cloudy,60,2012-12-12 13:20:00
1:50 PM,32.0,30.2,93,29.98,3.1,ENE,4.6,-,N/A,,Mostly Cloudy,60,2012-12-12 13:50:00
2:20 PM,32.0,30.2,93,29.98,3.1,ESE,2.3,-,N/A,,Haze,110,2012-12-12 14:20:00
2:50 PM,32.0,30.2,93,29.98,3.1,Variable,2.3,-,N/A,,Haze,0,2012-12-12 14:50:00
3:20 PM,32.0,30.2,93,29.95,3.1,ENE,2.3,-,N/A,,Haze,70,2012-12-12 15:20:00
3:50 PM,32.0,30.2,93,29.95,-9999.0,ENE,3.5,-,N/A,,Haze,70,2012-12-12 15:50:00
4:20 PM,30.2,28.4,93,29.95,3.1,Calm,Calm,-,N/A,,Haze,0,2012-12-12 16:20:00
4:50 PM,28.4,26.6,93,29.95,2.5,West,2.3,-,N/A,,Scattered Clouds,270,2012-12-12 16:50:00
5:20 PM,28.4,26.6,93,29.92,2.5,WNW,2.3,-,N/A,,Partly Cloudy,290,2012-12-12 17:20:00
5:50 PM,28.4,26.6,93,29.92,3.1,SSW,5.8,-,N/A,,Partly Cloudy,210,2012-12-12 17:50:00
6:20 PM,28.4,26.6,93,29.92,3.1,WSW,3.5,-,N/A,,Partly Cloudy,240,2012-12-12 18:20:00
6:50 PM,26.6,26.6,100,29.92,2.2,Variable,2.3,-,N/A,,Mist,0,2012-12-12 18:50:00
7:20 PM,28.4,28.4,100,29.89,2.5,ENE,2.3,-,N/A,,Partly Cloudy,60,2012-12-12 19:20:00
7:50 PM,28.4,26.6,93,29.89,3.1,Calm,Calm,-,N/A,,Scattered Clouds,0,2012-12-12 19:50:00
8:20 PM,30.2,28.4,93,29.89,3.1,Variable,2.3,-,N/A,,Partly Cloudy,0,2012-12-12 20:20:00
8:50 PM,30.2,28.4,93,29.89,2.5,Variable,2.3,-,N/A,,Mist,0,2012-12-12 20:50:00
9:20 PM,30.2,28.4,93,29.86,2.5,NW,2.3,-,N/A,,Mist,320,2012-12-12 21:20:00
9:50 PM,28.4,28.4,100,29.86,2.8,West,3.5,-,N/A,,Mist,280,2012-12-12 21:50:00
10:20 PM,30.2,28.4,93,29.86,2.8,Calm,Calm,-,N/A,,Haze,0,2012-12-12 22:20:00
10:50 PM,28.4,28.4,100,29.86,2.5,WSW,2.3,-,N/A,,Haze,250,2012-12-12 22:50:00
11:20 PM,28.4,28.4,100,29.83,-9999.0,Calm,Calm,-,N/A,,Mist,0,2012-12-12 23:20:00
11:50 PM,30.2,28.4,93,29.83,-9999.0,Calm,Calm,-,N/A,,Haze,0,2012-12-12 23:50:00